Data supplied by UK-AIR on 27/11/2015
All Data GMT hour ending 
Status: R =Ratified P=Provisional,P*=As supplied
,,Lough Navar,,,,,,,,,,,,,,,,,,,,,,,
Date,time,"PM<sub>10</sub> particulate matter (Hourly measured)",status,unit,"Non-volatile PM<sub>10</sub> (Hourly measured)",status,unit,"Ozone",status,unit,"Volatile PM<sub>10</sub> (Hourly measured)",status,unit
 
01-01-2012,01:00,,,,,,,66.00000,R,ugm-3,,,
01-01-2012,02:00,,,,,,,68.00000,R,ugm-3,,,
01-01-2012,03:00,,,,,,,68.00000,R,ugm-3,,,
01-01-2012,04:00,,,,,,,64.00000,R,ugm-3,,,
01-01-2012,05:00,,,,,,,60.00000,R,ugm-3,,,
01-01-2012,06:00,,,,,,,56.00000,R,ugm-3,,,
01-01-2012,07:00,,,,,,,54.00000,R,ugm-3,,,
01-01-2012,08:00,,,,,,,54.00000,R,ugm-3,,,
01-01-2012,09:00,,,,,,,54.00000,R,ugm-3,,,
01-01-2012,10:00,,,,,,,54.00000,R,ugm-3,,,
01-01-2012,11:00,,,,,,,54.00000,R,ugm-3,,,
01-01-2012,12:00,,,,,,,54.00000,R,ugm-3,,,
01-01-2012,13:00,,,,,,,58.00000,R,ugm-3,,,
01-01-2012,14:00,,,,,,,60.00000,R,ugm-3,,,
01-01-2012,15:00,,,,,,,66.00000,R,ugm-3,,,
01-01-2012,16:00,,,,,,,66.00000,R,ugm-3,,,
01-01-2012,17:00,,,,,,,62.00000,R,ugm-3,,,
01-01-2012,18:00,,,,,,,58.00000,R,ugm-3,,,
01-01-2012,19:00,,,,,,,58.00000,R,ugm-3,,,
01-01-2012,20:00,,,,,,,62.00000,R,ugm-3,,,
01-01-2012,21:00,,,,,,,62.00000,R,ugm-3,,,
01-01-2012,22:00,,,,,,,62.00000,R,ugm-3,,,
01-01-2012,23:00,,,,,,,64.00000,R,ugm-3,,,
01-01-2012,24:00,,,,,,,64.00000,R,ugm-3,,,
02-01-2012,01:00,,,,,,,64.00000,R,ugm-3,,,
02-01-2012,02:00,,,,,,,66.00000,R,ugm-3,,,
02-01-2012,03:00,,,,,,,64.00000,R,ugm-3,,,
02-01-2012,04:00,,,,,,,62.00000,R,ugm-3,,,
02-01-2012,05:00,,,,,,,62.00000,R,ugm-3,,,
02-01-2012,06:00,,,,,,,62.00000,R,ugm-3,,,
02-01-2012,07:00,,,,,,,62.00000,R,ugm-3,,,
02-01-2012,08:00,,,,,,,62.00000,R,ugm-3,,,
02-01-2012,09:00,,,,,,,60.00000,R,ugm-3,,,
02-01-2012,10:00,,,,,,,62.00000,R,ugm-3,,,
02-01-2012,11:00,,,,,,,62.00000,R,ugm-3,,,
02-01-2012,12:00,,,,,,,62.00000,R,ugm-3,,,
02-01-2012,13:00,,,,,,,62.00000,R,ugm-3,,,
02-01-2012,14:00,,,,,,,62.00000,R,ugm-3,,,
02-01-2012,15:00,,,,,,,62.00000,R,ugm-3,,,
02-01-2012,16:00,,,,,,,62.00000,R,ugm-3,,,
02-01-2012,17:00,,,,,,,60.00000,R,ugm-3,,,
02-01-2012,18:00,,,,,,,60.00000,R,ugm-3,,,
02-01-2012,19:00,,,,,,,60.00000,R,ugm-3,,,
02-01-2012,20:00,,,,,,,60.00000,R,ugm-3,,,
02-01-2012,21:00,,,,,,,58.00000,R,ugm-3,,,
02-01-2012,22:00,,,,,,,62.00000,R,ugm-3,,,
02-01-2012,23:00,,,,,,,66.00000,R,ugm-3,,,
02-01-2012,24:00,,,,,,,70.00000,R,ugm-3,,,
03-01-2012,01:00,,,,,,,68.00000,R,ugm-3,,,
03-01-2012,02:00,,,,,,,64.00000,R,ugm-3,,,
03-01-2012,03:00,,,,,,,66.00000,R,ugm-3,,,
03-01-2012,04:00,,,,,,,68.00000,R,ugm-3,,,
03-01-2012,05:00,,,,,,,,,,,,
03-01-2012,06:00,,,,,,,78.00000,R,ugm-3,,,
03-01-2012,07:00,,,,,,,76.00000,R,ugm-3,,,
03-01-2012,08:00,,,,,,,72.00000,R,ugm-3,,,
03-01-2012,09:00,,,,,,,74.00000,R,ugm-3,,,
03-01-2012,10:00,,,,,,,72.00000,R,ugm-3,,,
03-01-2012,11:00,,,,,,,74.00000,R,ugm-3,,,
03-01-2012,12:00,,,,,,,76.00000,R,ugm-3,,,
03-01-2012,13:00,,,,,,,78.00000,R,ugm-3,,,
03-01-2012,14:00,,,,,,,74.00000,R,ugm-3,,,
03-01-2012,15:00,,,,,,,70.00000,R,ugm-3,,,
03-01-2012,16:00,,,,,,,70.00000,R,ugm-3,,,
03-01-2012,17:00,,,,,,,72.00000,R,ugm-3,,,
03-01-2012,18:00,,,,,,,72.00000,R,ugm-3,,,
03-01-2012,19:00,,,,,,,76.00000,R,ugm-3,,,
03-01-2012,20:00,,,,,,,76.00000,R,ugm-3,,,
03-01-2012,21:00,,,,,,,76.00000,R,ugm-3,,,
03-01-2012,22:00,,,,,,,76.00000,R,ugm-3,,,
03-01-2012,23:00,,,,,,,76.00000,R,ugm-3,,,
03-01-2012,24:00,,,,,,,74.00000,R,ugm-3,,,
04-01-2012,01:00,,,,,,,68.00000,R,ugm-3,,,
04-01-2012,02:00,,,,,,,68.00000,R,ugm-3,,,
04-01-2012,03:00,,,,,,,68.00000,R,ugm-3,,,
04-01-2012,04:00,,,,,,,70.00000,R,ugm-3,,,
04-01-2012,05:00,,,,,,,74.00000,R,ugm-3,,,
04-01-2012,06:00,,,,,,,74.00000,R,ugm-3,,,
04-01-2012,07:00,,,,,,,72.00000,R,ugm-3,,,
04-01-2012,08:00,,,,,,,72.00000,R,ugm-3,,,
04-01-2012,09:00,,,,,,,68.00000,R,ugm-3,,,
04-01-2012,10:00,,,,,,,68.00000,R,ugm-3,,,
04-01-2012,11:00,,,,,,,70.00000,R,ugm-3,,,
04-01-2012,12:00,,,,,,,74.00000,R,ugm-3,,,
04-01-2012,13:00,,,,,,,76.00000,R,ugm-3,,,
04-01-2012,14:00,,,,,,,72.00000,R,ugm-3,,,
04-01-2012,15:00,,,,,,,72.00000,R,ugm-3,,,
04-01-2012,16:00,,,,,,,72.00000,R,ugm-3,,,
04-01-2012,17:00,,,,,,,76.00000,R,ugm-3,,,
04-01-2012,18:00,,,,,,,76.00000,R,ugm-3,,,
04-01-2012,19:00,,,,,,,76.00000,R,ugm-3,,,
04-01-2012,20:00,,,,,,,76.00000,R,ugm-3,,,
04-01-2012,21:00,,,,,,,76.00000,R,ugm-3,,,
04-01-2012,22:00,,,,,,,76.00000,R,ugm-3,,,
04-01-2012,23:00,,,,,,,76.00000,R,ugm-3,,,
04-01-2012,24:00,,,,,,,78.00000,R,ugm-3,,,
05-01-2012,01:00,,,,,,,78.00000,R,ugm-3,,,
05-01-2012,02:00,,,,,,,76.00000,R,ugm-3,,,
05-01-2012,03:00,,,,,,,72.00000,R,ugm-3,,,
05-01-2012,04:00,,,,,,,62.00000,R,ugm-3,,,
05-01-2012,05:00,,,,,,,58.00000,R,ugm-3,,,
05-01-2012,06:00,,,,,,,58.00000,R,ugm-3,,,
05-01-2012,07:00,,,,,,,62.00000,R,ugm-3,,,
05-01-2012,08:00,,,,,,,68.00000,R,ugm-3,,,
05-01-2012,09:00,,,,,,,70.00000,R,ugm-3,,,
05-01-2012,10:00,,,,,,,,,,,,
05-01-2012,11:00,,,,,,,,,,,,
05-01-2012,12:00,,,,,,,,,,,,
05-01-2012,13:00,,,,,,,,,,,,
05-01-2012,14:00,,,,,,,,,,,,
05-01-2012,15:00,,,,,,,,,,,,
05-01-2012,16:00,,,,,,,,,,,,
05-01-2012,17:00,,,,,,,,,,,,
05-01-2012,18:00,,,,,,,56.00000,R,ugm-3,,,
05-01-2012,19:00,,,,,,,60.00000,R,ugm-3,,,
05-01-2012,20:00,,,,,,,58.00000,R,ugm-3,,,
05-01-2012,21:00,,,,,,,58.00000,R,ugm-3,,,
05-01-2012,22:00,,,,,,,56.00000,R,ugm-3,,,
05-01-2012,23:00,,,,,,,54.00000,R,ugm-3,,,
05-01-2012,24:00,,,,,,,52.00000,R,ugm-3,,,
06-01-2012,01:00,,,,,,,36.00000,R,ugm-3,,,
06-01-2012,02:00,,,,,,,14.00000,R,ugm-3,,,
06-01-2012,03:00,,,,,,,14.00000,R,ugm-3,,,
06-01-2012,04:00,,,,,,,16.00000,R,ugm-3,,,
06-01-2012,05:00,,,,,,,12.00000,R,ugm-3,,,
06-01-2012,06:00,,,,,,,10.00000,R,ugm-3,,,
06-01-2012,07:00,,,,,,,20.00000,R,ugm-3,,,
06-01-2012,08:00,,,,,,,30.00000,R,ugm-3,,,
06-01-2012,09:00,,,,,,,50.00000,R,ugm-3,,,
06-01-2012,10:00,,,,,,,46.00000,R,ugm-3,,,
06-01-2012,11:00,,,,,,,44.00000,R,ugm-3,,,
06-01-2012,12:00,,,,,,,52.00000,R,ugm-3,,,
06-01-2012,13:00,,,,,,,58.00000,R,ugm-3,,,
06-01-2012,14:00,,,,,,,60.00000,R,ugm-3,,,
06-01-2012,15:00,,,,,,,64.00000,R,ugm-3,,,
06-01-2012,16:00,,,,,,,64.00000,R,ugm-3,,,
06-01-2012,17:00,,,,,,,62.00000,R,ugm-3,,,
06-01-2012,18:00,,,,,,,66.00000,R,ugm-3,,,
06-01-2012,19:00,,,,,,,68.00000,R,ugm-3,,,
06-01-2012,20:00,,,,,,,74.00000,R,ugm-3,,,
06-01-2012,21:00,,,,,,,74.00000,R,ugm-3,,,
06-01-2012,22:00,,,,,,,74.00000,R,ugm-3,,,
06-01-2012,23:00,,,,,,,72.00000,R,ugm-3,,,
06-01-2012,24:00,,,,,,,68.00000,R,ugm-3,,,
07-01-2012,01:00,,,,,,,68.00000,R,ugm-3,,,
07-01-2012,02:00,,,,,,,66.00000,R,ugm-3,,,
07-01-2012,03:00,,,,,,,64.00000,R,ugm-3,,,
07-01-2012,04:00,,,,,,,64.00000,R,ugm-3,,,
07-01-2012,05:00,,,,,,,64.00000,R,ugm-3,,,
07-01-2012,06:00,,,,,,,64.00000,R,ugm-3,,,
07-01-2012,07:00,,,,,,,66.00000,R,ugm-3,,,
07-01-2012,08:00,,,,,,,66.00000,R,ugm-3,,,
07-01-2012,09:00,,,,,,,66.00000,R,ugm-3,,,
07-01-2012,10:00,,,,,,,68.00000,R,ugm-3,,,
07-01-2012,11:00,,,,,,,68.00000,R,ugm-3,,,
07-01-2012,12:00,,,,,,,68.00000,R,ugm-3,,,
07-01-2012,13:00,,,,,,,68.00000,R,ugm-3,,,
07-01-2012,14:00,,,,,,,68.00000,R,ugm-3,,,
07-01-2012,15:00,,,,,,,66.00000,R,ugm-3,,,
07-01-2012,16:00,,,,,,,68.00000,R,ugm-3,,,
07-01-2012,17:00,,,,,,,66.00000,R,ugm-3,,,
07-01-2012,18:00,,,,,,,62.00000,R,ugm-3,,,
07-01-2012,19:00,,,,,,,66.00000,R,ugm-3,,,
07-01-2012,20:00,,,,,,,64.00000,R,ugm-3,,,
07-01-2012,21:00,,,,,,,66.00000,R,ugm-3,,,
07-01-2012,22:00,,,,,,,66.00000,R,ugm-3,,,
07-01-2012,23:00,,,,,,,64.00000,R,ugm-3,,,
07-01-2012,24:00,,,,,,,64.00000,R,ugm-3,,,
08-01-2012,01:00,,,,,,,62.00000,R,ugm-3,,,
08-01-2012,02:00,,,,,,,60.00000,R,ugm-3,,,
08-01-2012,03:00,,,,,,,54.00000,R,ugm-3,,,
08-01-2012,04:00,,,,,,,52.00000,R,ugm-3,,,
08-01-2012,05:00,,,,,,,48.00000,R,ugm-3,,,
08-01-2012,06:00,,,,,,,48.00000,R,ugm-3,,,
08-01-2012,07:00,,,,,,,58.00000,R,ugm-3,,,
08-01-2012,08:00,,,,,,,62.00000,R,ugm-3,,,
08-01-2012,09:00,,,,,,,64.00000,R,ugm-3,,,
08-01-2012,10:00,,,,,,,58.00000,R,ugm-3,,,
08-01-2012,11:00,,,,,,,58.00000,R,ugm-3,,,
08-01-2012,12:00,,,,,,,52.00000,R,ugm-3,,,
08-01-2012,13:00,,,,,,,58.00000,R,ugm-3,,,
08-01-2012,14:00,,,,,,,54.00000,R,ugm-3,,,
08-01-2012,15:00,,,,,,,52.00000,R,ugm-3,,,
08-01-2012,16:00,,,,,,,54.00000,R,ugm-3,,,
08-01-2012,17:00,,,,,,,52.00000,R,ugm-3,,,
08-01-2012,18:00,,,,,,,54.00000,R,ugm-3,,,
08-01-2012,19:00,,,,,,,56.00000,R,ugm-3,,,
08-01-2012,20:00,,,,,,,58.00000,R,ugm-3,,,
08-01-2012,21:00,,,,,,,58.00000,R,ugm-3,,,
08-01-2012,22:00,,,,,,,58.00000,R,ugm-3,,,
08-01-2012,23:00,,,,,,,58.00000,R,ugm-3,,,
08-01-2012,24:00,,,,,,,62.00000,R,ugm-3,,,
09-01-2012,01:00,,,,,,,60.00000,R,ugm-3,,,
09-01-2012,02:00,,,,,,,58.00000,R,ugm-3,,,
09-01-2012,03:00,,,,,,,60.00000,R,ugm-3,,,
09-01-2012,04:00,,,,,,,58.00000,R,ugm-3,,,
09-01-2012,05:00,,,,,,,70.00000,R,ugm-3,,,
09-01-2012,06:00,,,,,,,70.00000,R,ugm-3,,,
09-01-2012,07:00,,,,,,,68.00000,R,ugm-3,,,
09-01-2012,08:00,,,,,,,66.00000,R,ugm-3,,,
09-01-2012,09:00,,,,,,,60.00000,R,ugm-3,,,
09-01-2012,10:00,,,,,,,38.00000,R,ugm-3,,,
09-01-2012,11:00,,,,,,,28.00000,R,ugm-3,,,
09-01-2012,12:00,,,,,,,44.00000,R,ugm-3,,,
09-01-2012,13:00,,,,,,,54.00000,R,ugm-3,,,
09-01-2012,14:00,,,,,,,58.00000,R,ugm-3,,,
09-01-2012,15:00,,,,,,,56.00000,R,ugm-3,,,
09-01-2012,16:00,,,,,,,46.00000,R,ugm-3,,,
09-01-2012,17:00,,,,,,,28.00000,R,ugm-3,,,
09-01-2012,18:00,,,,,,,22.00000,R,ugm-3,,,
09-01-2012,19:00,,,,,,,44.00000,R,ugm-3,,,
09-01-2012,20:00,,,,,,,54.00000,R,ugm-3,,,
09-01-2012,21:00,,,,,,,56.00000,R,ugm-3,,,
09-01-2012,22:00,,,,,,,54.00000,R,ugm-3,,,
09-01-2012,23:00,,,,,,,54.00000,R,ugm-3,,,
09-01-2012,24:00,,,,,,,52.00000,R,ugm-3,,,
10-01-2012,01:00,,,,,,,52.00000,R,ugm-3,,,
10-01-2012,02:00,,,,,,,50.00000,R,ugm-3,,,
10-01-2012,03:00,,,,,,,58.00000,R,ugm-3,,,
10-01-2012,04:00,,,,,,,62.00000,R,ugm-3,,,
10-01-2012,05:00,,,,,,,50.00000,R,ugm-3,,,
10-01-2012,06:00,,,,,,,50.00000,R,ugm-3,,,
10-01-2012,07:00,,,,,,,44.00000,R,ugm-3,,,
10-01-2012,08:00,,,,,,,42.00000,R,ugm-3,,,
10-01-2012,09:00,,,,,,,40.00000,R,ugm-3,,,
10-01-2012,10:00,,,,,,,42.00000,R,ugm-3,,,
10-01-2012,11:00,,,,,,,54.00000,R,ugm-3,,,
10-01-2012,12:00,,,,,,,54.00000,R,ugm-3,,,
10-01-2012,13:00,,,,,,,58.00000,R,ugm-3,,,
10-01-2012,14:00,,,,,,,64.00000,R,ugm-3,,,
10-01-2012,15:00,,,,,,,62.00000,R,ugm-3,,,
10-01-2012,16:00,,,,,,,54.00000,R,ugm-3,,,
10-01-2012,17:00,,,,,,,50.00000,R,ugm-3,,,
10-01-2012,18:00,,,,,,,48.00000,R,ugm-3,,,
10-01-2012,19:00,,,,,,,46.00000,R,ugm-3,,,
10-01-2012,20:00,,,,,,,46.00000,R,ugm-3,,,
10-01-2012,21:00,,,,,,,46.00000,R,ugm-3,,,
10-01-2012,22:00,,,,,,,52.00000,R,ugm-3,,,
10-01-2012,23:00,,,,,,,50.00000,R,ugm-3,,,
10-01-2012,24:00,,,,,,,50.00000,R,ugm-3,,,
11-01-2012,01:00,,,,,,,56.00000,R,ugm-3,,,
11-01-2012,02:00,,,,,,,58.00000,R,ugm-3,,,
11-01-2012,03:00,,,,,,,60.00000,R,ugm-3,,,
11-01-2012,04:00,,,,,,,58.00000,R,ugm-3,,,
11-01-2012,05:00,,,,,,,60.00000,R,ugm-3,,,
11-01-2012,06:00,,,,,,,46.00000,R,ugm-3,,,
11-01-2012,07:00,,,,,,,44.00000,R,ugm-3,,,
11-01-2012,08:00,,,,,,,38.00000,R,ugm-3,,,
11-01-2012,09:00,,,,,,,44.00000,R,ugm-3,,,
11-01-2012,10:00,,,,,,,54.00000,R,ugm-3,,,
11-01-2012,11:00,,,,,,,52.00000,R,ugm-3,,,
11-01-2012,12:00,,,,,,,52.00000,R,ugm-3,,,
11-01-2012,13:00,,,,,,,52.00000,R,ugm-3,,,
11-01-2012,14:00,,,,,,,56.00000,R,ugm-3,,,
11-01-2012,15:00,,,,,,,56.00000,R,ugm-3,,,
11-01-2012,16:00,,,,,,,56.00000,R,ugm-3,,,
11-01-2012,17:00,,,,,,,54.00000,R,ugm-3,,,
11-01-2012,18:00,,,,,,,56.00000,R,ugm-3,,,
11-01-2012,19:00,,,,,,,56.00000,R,ugm-3,,,
11-01-2012,20:00,,,,,,,54.00000,R,ugm-3,,,
11-01-2012,21:00,,,,,,,54.00000,R,ugm-3,,,
11-01-2012,22:00,,,,,,,56.00000,R,ugm-3,,,
11-01-2012,23:00,,,,,,,60.00000,R,ugm-3,,,
11-01-2012,24:00,,,,,,,62.00000,R,ugm-3,,,
12-01-2012,01:00,,,,,,,62.00000,R,ugm-3,,,
12-01-2012,02:00,,,,,,,62.00000,R,ugm-3,,,
12-01-2012,03:00,,,,,,,64.00000,R,ugm-3,,,
12-01-2012,04:00,,,,,,,64.00000,R,ugm-3,,,
12-01-2012,05:00,,,,,,,72.00000,R,ugm-3,,,
12-01-2012,06:00,,,,,,,74.00000,R,ugm-3,,,
12-01-2012,07:00,,,,,,,70.00000,R,ugm-3,,,
12-01-2012,08:00,,,,,,,60.00000,R,ugm-3,,,
12-01-2012,09:00,,,,,,,60.00000,R,ugm-3,,,
12-01-2012,10:00,,,,,,,56.00000,R,ugm-3,,,
12-01-2012,11:00,,,,,,,56.00000,R,ugm-3,,,
12-01-2012,12:00,,,,,,,54.00000,R,ugm-3,,,
12-01-2012,13:00,,,,,,,60.00000,R,ugm-3,,,
12-01-2012,14:00,,,,,,,62.00000,R,ugm-3,,,
12-01-2012,15:00,,,,,,,60.00000,R,ugm-3,,,
12-01-2012,16:00,,,,,,,58.00000,R,ugm-3,,,
12-01-2012,17:00,,,,,,,40.00000,R,ugm-3,,,
12-01-2012,18:00,,,,,,,16.00000,R,ugm-3,,,
12-01-2012,19:00,,,,,,,10.00000,R,ugm-3,,,
12-01-2012,20:00,,,,,,,12.00000,R,ugm-3,,,
12-01-2012,21:00,,,,,,,10.00000,R,ugm-3,,,
12-01-2012,22:00,,,,,,,8.00000,R,ugm-3,,,
12-01-2012,23:00,,,,,,,6.00000,R,ugm-3,,,
12-01-2012,24:00,,,,,,,6.00000,R,ugm-3,,,
13-01-2012,01:00,,,,,,,6.00000,R,ugm-3,,,
13-01-2012,02:00,,,,,,,4.00000,R,ugm-3,,,
13-01-2012,03:00,,,,,,,4.00000,R,ugm-3,,,
13-01-2012,04:00,,,,,,,4.00000,R,ugm-3,,,
13-01-2012,05:00,,,,,,,2.00000,R,ugm-3,,,
13-01-2012,06:00,,,,,,,0.00000,R,ugm-3,,,
13-01-2012,07:00,,,,,,,0.00000,R,ugm-3,,,
13-01-2012,08:00,,,,,,,0.00000,R,ugm-3,,,
13-01-2012,09:00,,,,,,,0.00000,R,ugm-3,,,
13-01-2012,10:00,,,,,,,0.00000,R,ugm-3,,,
13-01-2012,11:00,,,,,,,0.00000,R,ugm-3,,,
13-01-2012,12:00,,,,,,,4.00000,R,ugm-3,,,
13-01-2012,13:00,,,,,,,14.00000,R,ugm-3,,,
13-01-2012,14:00,,,,,,,22.00000,R,ugm-3,,,
13-01-2012,15:00,,,,,,,28.00000,R,ugm-3,,,
13-01-2012,16:00,,,,,,,22.00000,R,ugm-3,,,
13-01-2012,17:00,,,,,,,22.00000,R,ugm-3,,,
13-01-2012,18:00,,,,,,,18.00000,R,ugm-3,,,
13-01-2012,19:00,,,,,,,10.00000,R,ugm-3,,,
13-01-2012,20:00,,,,,,,12.00000,R,ugm-3,,,
13-01-2012,21:00,,,,,,,6.00000,R,ugm-3,,,
13-01-2012,22:00,,,,,,,4.00000,R,ugm-3,,,
13-01-2012,23:00,,,,,,,4.00000,R,ugm-3,,,
13-01-2012,24:00,,,,,,,24.00000,R,ugm-3,,,
14-01-2012,01:00,,,,,,,24.00000,R,ugm-3,,,
14-01-2012,02:00,,,,,,,24.00000,R,ugm-3,,,
14-01-2012,03:00,,,,,,,22.00000,R,ugm-3,,,
14-01-2012,04:00,,,,,,,22.00000,R,ugm-3,,,
14-01-2012,05:00,,,,,,,24.00000,R,ugm-3,,,
14-01-2012,06:00,,,,,,,28.00000,R,ugm-3,,,
14-01-2012,07:00,,,,,,,28.00000,R,ugm-3,,,
14-01-2012,08:00,,,,,,,30.00000,R,ugm-3,,,
14-01-2012,09:00,,,,,,,30.00000,R,ugm-3,,,
14-01-2012,10:00,,,,,,,34.00000,R,ugm-3,,,
14-01-2012,11:00,,,,,,,38.00000,R,ugm-3,,,
14-01-2012,12:00,,,,,,,44.00000,R,ugm-3,,,
14-01-2012,13:00,,,,,,,42.00000,R,ugm-3,,,
14-01-2012,14:00,,,,,,,46.00000,R,ugm-3,,,
14-01-2012,15:00,,,,,,,48.00000,R,ugm-3,,,
14-01-2012,16:00,,,,,,,46.00000,R,ugm-3,,,
14-01-2012,17:00,,,,,,,44.00000,R,ugm-3,,,
14-01-2012,18:00,,,,,,,40.00000,R,ugm-3,,,
14-01-2012,19:00,,,,,,,38.00000,R,ugm-3,,,
14-01-2012,20:00,,,,,,,40.00000,R,ugm-3,,,
14-01-2012,21:00,,,,,,,46.00000,R,ugm-3,,,
14-01-2012,22:00,,,,,,,44.00000,R,ugm-3,,,
14-01-2012,23:00,,,,,,,44.00000,R,ugm-3,,,
14-01-2012,24:00,,,,,,,44.00000,R,ugm-3,,,
15-01-2012,01:00,,,,,,,44.00000,R,ugm-3,,,
15-01-2012,02:00,,,,,,,46.00000,R,ugm-3,,,
15-01-2012,03:00,,,,,,,50.00000,R,ugm-3,,,
15-01-2012,04:00,,,,,,,56.00000,R,ugm-3,,,
15-01-2012,05:00,,,,,,,54.00000,R,ugm-3,,,
15-01-2012,06:00,,,,,,,58.00000,R,ugm-3,,,
15-01-2012,07:00,,,,,,,56.00000,R,ugm-3,,,
15-01-2012,08:00,,,,,,,52.00000,R,ugm-3,,,
15-01-2012,09:00,,,,,,,52.00000,R,ugm-3,,,
15-01-2012,10:00,,,,,,,52.00000,R,ugm-3,,,
15-01-2012,11:00,,,,,,,52.00000,R,ugm-3,,,
15-01-2012,12:00,,,,,,,52.00000,R,ugm-3,,,
15-01-2012,13:00,,,,,,,52.00000,R,ugm-3,,,
15-01-2012,14:00,,,,,,,52.00000,R,ugm-3,,,
15-01-2012,15:00,,,,,,,56.00000,R,ugm-3,,,
15-01-2012,16:00,,,,,,,52.00000,R,ugm-3,,,
15-01-2012,17:00,,,,,,,50.00000,R,ugm-3,,,
15-01-2012,18:00,,,,,,,42.00000,R,ugm-3,,,
15-01-2012,19:00,,,,,,,44.00000,R,ugm-3,,,
15-01-2012,20:00,,,,,,,50.00000,R,ugm-3,,,
15-01-2012,21:00,,,,,,,50.00000,R,ugm-3,,,
15-01-2012,22:00,,,,,,,50.00000,R,ugm-3,,,
15-01-2012,23:00,,,,,,,48.00000,R,ugm-3,,,
15-01-2012,24:00,,,,,,,38.00000,R,ugm-3,,,
16-01-2012,01:00,,,,,,,38.00000,R,ugm-3,,,
16-01-2012,02:00,,,,,,,32.00000,R,ugm-3,,,
16-01-2012,03:00,,,,,,,30.00000,R,ugm-3,,,
16-01-2012,04:00,,,,,,,42.00000,R,ugm-3,,,
16-01-2012,05:00,,,,,,,32.00000,R,ugm-3,,,
16-01-2012,06:00,,,,,,,30.00000,R,ugm-3,,,
16-01-2012,07:00,,,,,,,44.00000,R,ugm-3,,,
16-01-2012,08:00,,,,,,,40.00000,R,ugm-3,,,
16-01-2012,09:00,,,,,,,48.00000,R,ugm-3,,,
16-01-2012,10:00,,,,,,,46.00000,R,ugm-3,,,
16-01-2012,11:00,,,,,,,44.00000,R,ugm-3,,,
16-01-2012,12:00,,,,,,,52.00000,R,ugm-3,,,
16-01-2012,13:00,,,,,,,52.00000,R,ugm-3,,,
16-01-2012,14:00,,,,,,,50.00000,R,ugm-3,,,
16-01-2012,15:00,,,,,,,46.00000,R,ugm-3,,,
16-01-2012,16:00,,,,,,,44.00000,R,ugm-3,,,
16-01-2012,17:00,,,,,,,44.00000,R,ugm-3,,,
16-01-2012,18:00,,,,,,,46.00000,R,ugm-3,,,
16-01-2012,19:00,,,,,,,46.00000,R,ugm-3,,,
16-01-2012,20:00,,,,,,,46.00000,R,ugm-3,,,
16-01-2012,21:00,,,,,,,48.00000,R,ugm-3,,,
16-01-2012,22:00,,,,,,,46.00000,R,ugm-3,,,
16-01-2012,23:00,,,,,,,48.00000,R,ugm-3,,,
16-01-2012,24:00,,,,,,,52.00000,R,ugm-3,,,
17-01-2012,01:00,,,,,,,50.00000,R,ugm-3,,,
17-01-2012,02:00,,,,,,,56.00000,R,ugm-3,,,
17-01-2012,03:00,,,,,,,58.00000,R,ugm-3,,,
17-01-2012,04:00,,,,,,,56.00000,R,ugm-3,,,
17-01-2012,05:00,,,,,,,56.00000,R,ugm-3,,,
17-01-2012,06:00,,,,,,,60.00000,R,ugm-3,,,
17-01-2012,07:00,,,,,,,60.00000,R,ugm-3,,,
17-01-2012,08:00,,,,,,,68.00000,R,ugm-3,,,
17-01-2012,09:00,,,,,,,68.00000,R,ugm-3,,,
17-01-2012,10:00,,,,,,,66.00000,R,ugm-3,,,
17-01-2012,11:00,,,,,,,66.00000,R,ugm-3,,,
17-01-2012,12:00,,,,,,,68.00000,R,ugm-3,,,
17-01-2012,13:00,,,,,,,64.00000,R,ugm-3,,,
17-01-2012,14:00,,,,,,,62.00000,R,ugm-3,,,
17-01-2012,15:00,,,,,,,62.00000,R,ugm-3,,,
17-01-2012,16:00,,,,,,,60.00000,R,ugm-3,,,
17-01-2012,17:00,,,,,,,60.00000,R,ugm-3,,,
17-01-2012,18:00,,,,,,,60.00000,R,ugm-3,,,
17-01-2012,19:00,,,,,,,60.00000,R,ugm-3,,,
17-01-2012,20:00,,,,,,,58.00000,R,ugm-3,,,
17-01-2012,21:00,,,,,,,56.00000,R,ugm-3,,,
17-01-2012,22:00,,,,,,,50.00000,R,ugm-3,,,
17-01-2012,23:00,,,,,,,54.00000,R,ugm-3,,,
17-01-2012,24:00,,,,,,,58.00000,R,ugm-3,,,
18-01-2012,01:00,,,,,,,58.00000,R,ugm-3,,,
18-01-2012,02:00,,,,,,,56.00000,R,ugm-3,,,
18-01-2012,03:00,,,,,,,52.00000,R,ugm-3,,,
18-01-2012,04:00,,,,,,,62.00000,R,ugm-3,,,
18-01-2012,05:00,,,,,,,62.00000,R,ugm-3,,,
18-01-2012,06:00,,,,,,,68.00000,R,ugm-3,,,
18-01-2012,07:00,,,,,,,70.00000,R,ugm-3,,,
18-01-2012,08:00,,,,,,,70.00000,R,ugm-3,,,
18-01-2012,09:00,,,,,,,56.00000,R,ugm-3,,,
18-01-2012,10:00,,,,,,,64.00000,R,ugm-3,,,
18-01-2012,11:00,,,,,,,56.00000,R,ugm-3,,,
18-01-2012,12:00,,,,,,,58.00000,R,ugm-3,,,
18-01-2012,13:00,,,,,,,62.00000,R,ugm-3,,,
18-01-2012,14:00,,,,,,,64.00000,R,ugm-3,,,
18-01-2012,15:00,,,,,,,60.00000,R,ugm-3,,,
18-01-2012,16:00,,,,,,,62.00000,R,ugm-3,,,
18-01-2012,17:00,,,,,,,60.00000,R,ugm-3,,,
18-01-2012,18:00,,,,,,,62.00000,R,ugm-3,,,
18-01-2012,19:00,,,,,,,60.00000,R,ugm-3,,,
18-01-2012,20:00,,,,,,,56.00000,R,ugm-3,,,
18-01-2012,21:00,,,,,,,52.00000,R,ugm-3,,,
18-01-2012,22:00,,,,,,,50.00000,R,ugm-3,,,
18-01-2012,23:00,,,,,,,58.00000,R,ugm-3,,,
18-01-2012,24:00,,,,,,,60.00000,R,ugm-3,,,
19-01-2012,01:00,,,,,,,58.00000,R,ugm-3,,,
19-01-2012,02:00,,,,,,,54.00000,R,ugm-3,,,
19-01-2012,03:00,,,,,,,62.00000,R,ugm-3,,,
19-01-2012,04:00,,,,,,,70.00000,R,ugm-3,,,
19-01-2012,05:00,,,,,,,72.00000,R,ugm-3,,,
19-01-2012,06:00,,,,,,,70.00000,R,ugm-3,,,
19-01-2012,07:00,,,,,,,70.00000,R,ugm-3,,,
19-01-2012,08:00,,,,,,,58.00000,R,ugm-3,,,
19-01-2012,09:00,,,,,,,56.00000,R,ugm-3,,,
19-01-2012,10:00,,,,,,,60.00000,R,ugm-3,,,
19-01-2012,11:00,,,,,,,60.00000,R,ugm-3,,,
19-01-2012,12:00,,,,,,,70.00000,R,ugm-3,,,
19-01-2012,13:00,,,,,,,72.00000,R,ugm-3,,,
19-01-2012,14:00,,,,,,,72.00000,R,ugm-3,,,
19-01-2012,15:00,,,,,,,70.00000,R,ugm-3,,,
19-01-2012,16:00,,,,,,,72.00000,R,ugm-3,,,
19-01-2012,17:00,,,,,,,74.00000,R,ugm-3,,,
19-01-2012,18:00,,,,,,,72.00000,R,ugm-3,,,
19-01-2012,19:00,,,,,,,72.00000,R,ugm-3,,,
19-01-2012,20:00,,,,,,,74.00000,R,ugm-3,,,
19-01-2012,21:00,,,,,,,74.00000,R,ugm-3,,,
19-01-2012,22:00,,,,,,,70.00000,R,ugm-3,,,
19-01-2012,23:00,,,,,,,70.00000,R,ugm-3,,,
19-01-2012,24:00,,,,,,,72.00000,R,ugm-3,,,
20-01-2012,01:00,,,,,,,72.00000,R,ugm-3,,,
20-01-2012,02:00,,,,,,,68.00000,R,ugm-3,,,
20-01-2012,03:00,,,,,,,68.00000,R,ugm-3,,,
20-01-2012,04:00,,,,,,,70.00000,R,ugm-3,,,
20-01-2012,05:00,,,,,,,72.00000,R,ugm-3,,,
20-01-2012,06:00,,,,,,,74.00000,R,ugm-3,,,
20-01-2012,07:00,,,,,,,74.00000,R,ugm-3,,,
20-01-2012,08:00,,,,,,,72.00000,R,ugm-3,,,
20-01-2012,09:00,,,,,,,70.00000,R,ugm-3,,,
20-01-2012,10:00,,,,,,,68.00000,R,ugm-3,,,
20-01-2012,11:00,,,,,,,68.00000,R,ugm-3,,,
20-01-2012,12:00,,,,,,,68.00000,R,ugm-3,,,
20-01-2012,13:00,,,,,,,70.00000,R,ugm-3,,,
20-01-2012,14:00,,,,,,,70.00000,R,ugm-3,,,
20-01-2012,15:00,,,,,,,70.00000,R,ugm-3,,,
20-01-2012,16:00,,,,,,,70.00000,R,ugm-3,,,
20-01-2012,17:00,,,,,,,68.00000,R,ugm-3,,,
20-01-2012,18:00,,,,,,,66.00000,R,ugm-3,,,
20-01-2012,19:00,,,,,,,66.00000,R,ugm-3,,,
20-01-2012,20:00,,,,,,,64.00000,R,ugm-3,,,
20-01-2012,21:00,,,,,,,66.00000,R,ugm-3,,,
20-01-2012,22:00,,,,,,,64.00000,R,ugm-3,,,
20-01-2012,23:00,,,,,,,66.00000,R,ugm-3,,,
20-01-2012,24:00,,,,,,,66.00000,R,ugm-3,,,
21-01-2012,01:00,,,,,,,66.00000,R,ugm-3,,,
21-01-2012,02:00,,,,,,,70.00000,R,ugm-3,,,
21-01-2012,03:00,,,,,,,72.00000,R,ugm-3,,,
21-01-2012,04:00,,,,,,,76.00000,R,ugm-3,,,
21-01-2012,05:00,,,,,,,76.00000,R,ugm-3,,,
21-01-2012,06:00,,,,,,,78.00000,R,ugm-3,,,
21-01-2012,07:00,,,,,,,76.00000,R,ugm-3,,,
21-01-2012,08:00,,,,,,,72.00000,R,ugm-3,,,
21-01-2012,09:00,,,,,,,68.00000,R,ugm-3,,,
21-01-2012,10:00,,,,,,,66.00000,R,ugm-3,,,
21-01-2012,11:00,,,,,,,72.00000,R,ugm-3,,,
21-01-2012,12:00,,,,,,,72.00000,R,ugm-3,,,
21-01-2012,13:00,,,,,,,74.00000,R,ugm-3,,,
21-01-2012,14:00,,,,,,,76.00000,R,ugm-3,,,
21-01-2012,15:00,,,,,,,74.00000,R,ugm-3,,,
21-01-2012,16:00,,,,,,,72.00000,R,ugm-3,,,
21-01-2012,17:00,,,,,,,72.00000,R,ugm-3,,,
21-01-2012,18:00,,,,,,,72.00000,R,ugm-3,,,
21-01-2012,19:00,,,,,,,70.00000,R,ugm-3,,,
21-01-2012,20:00,,,,,,,70.00000,R,ugm-3,,,
21-01-2012,21:00,,,,,,,72.00000,R,ugm-3,,,
21-01-2012,22:00,,,,,,,72.00000,R,ugm-3,,,
21-01-2012,23:00,,,,,,,70.00000,R,ugm-3,,,
21-01-2012,24:00,,,,,,,68.00000,R,ugm-3,,,
22-01-2012,01:00,,,,,,,66.00000,R,ugm-3,,,
22-01-2012,02:00,,,,,,,70.00000,R,ugm-3,,,
22-01-2012,03:00,,,,,,,76.00000,R,ugm-3,,,
22-01-2012,04:00,,,,,,,76.00000,R,ugm-3,,,
22-01-2012,05:00,,,,,,,76.00000,R,ugm-3,,,
22-01-2012,06:00,,,,,,,76.00000,R,ugm-3,,,
22-01-2012,07:00,,,,,,,72.00000,R,ugm-3,,,
22-01-2012,08:00,,,,,,,70.00000,R,ugm-3,,,
22-01-2012,09:00,,,,,,,70.00000,R,ugm-3,,,
22-01-2012,10:00,,,,,,,70.00000,R,ugm-3,,,
22-01-2012,11:00,,,,,,,70.00000,R,ugm-3,,,
22-01-2012,12:00,,,,,,,70.00000,R,ugm-3,,,
22-01-2012,13:00,,,,,,,72.00000,R,ugm-3,,,
22-01-2012,14:00,,,,,,,72.00000,R,ugm-3,,,
22-01-2012,15:00,,,,,,,72.00000,R,ugm-3,,,
22-01-2012,16:00,,,,,,,70.00000,R,ugm-3,,,
22-01-2012,17:00,,,,,,,70.00000,R,ugm-3,,,
22-01-2012,18:00,,,,,,,72.00000,R,ugm-3,,,
22-01-2012,19:00,,,,,,,72.00000,R,ugm-3,,,
22-01-2012,20:00,,,,,,,72.00000,R,ugm-3,,,
22-01-2012,21:00,,,,,,,72.00000,R,ugm-3,,,
22-01-2012,22:00,,,,,,,70.00000,R,ugm-3,,,
22-01-2012,23:00,,,,,,,70.00000,R,ugm-3,,,
22-01-2012,24:00,,,,,,,72.00000,R,ugm-3,,,
23-01-2012,01:00,,,,,,,66.00000,R,ugm-3,,,
23-01-2012,02:00,,,,,,,64.00000,R,ugm-3,,,
23-01-2012,03:00,,,,,,,62.00000,R,ugm-3,,,
23-01-2012,04:00,,,,,,,64.00000,R,ugm-3,,,
23-01-2012,05:00,,,,,,,62.00000,R,ugm-3,,,
23-01-2012,06:00,,,,,,,58.00000,R,ugm-3,,,
23-01-2012,07:00,,,,,,,64.00000,R,ugm-3,,,
23-01-2012,08:00,,,,,,,58.00000,R,ugm-3,,,
23-01-2012,09:00,,,,,,,58.00000,R,ugm-3,,,
23-01-2012,10:00,,,,,,,68.00000,R,ugm-3,,,
23-01-2012,11:00,,,,,,,68.00000,R,ugm-3,,,
23-01-2012,12:00,,,,,,,66.00000,R,ugm-3,,,
23-01-2012,13:00,,,,,,,72.00000,R,ugm-3,,,
23-01-2012,14:00,,,,,,,76.00000,R,ugm-3,,,
23-01-2012,15:00,,,,,,,72.00000,R,ugm-3,,,
23-01-2012,16:00,,,,,,,68.00000,R,ugm-3,,,
23-01-2012,17:00,,,,,,,46.00000,R,ugm-3,,,
23-01-2012,18:00,,,,,,,18.00000,R,ugm-3,,,
23-01-2012,19:00,,,,,,,12.00000,R,ugm-3,,,
23-01-2012,20:00,,,,,,,8.00000,R,ugm-3,,,
23-01-2012,21:00,,,,,,,8.00000,R,ugm-3,,,
23-01-2012,22:00,,,,,,,6.00000,R,ugm-3,,,
23-01-2012,23:00,,,,,,,24.00000,R,ugm-3,,,
23-01-2012,24:00,,,,,,,54.00000,R,ugm-3,,,
24-01-2012,01:00,,,,,,,48.00000,R,ugm-3,,,